{"data":{"norad_id":59342,"intl_designator":"2024-057Y","name":"STARLINK-31628","alt_names":[],"object_type":"PAYLOAD","status":"ACTIVE","operator":null,"country":"US","launch_date":"2024-03-25","launch_site_code":"AFETR","launch_vehicle":null,"mission":null,"orbit_class":"UNKNOWN","rcs_meters":null,"size_class":null,"mass_kg":null,"dimensions":null,"purposes":["comms"],"wikipedia_slug":null,"has_3d_model":false,"image_url":null,"decayed_at":null,"tle_current":{"epoch":"2026-09-21T02:30:34.925760Z","epoch_age_seconds":109967,"freshness":"FRESH","line1":"1 59342U 24057Y   26264.10457090 -.00000192  00000+0  25767-5 0  9991","line2":"2 59342  43.0080 163.6101 0002170 265.9979  94.0625 15.27575477139723","mean_motion":15.27575477,"eccentricity":0.000217,"inclination_deg":43.008,"raan_deg":163.6101,"arg_perigee_deg":265.9979,"mean_anomaly_deg":94.0625,"bstar":2.5767e-6,"rev_number":13972,"period_min":94.267027828177,"perigee_km":481.57375924042,"apogee_km":484.55151988399,"semimajor_km":6861.1996395622,"source":"CELESTRAK","updated_at":"2026-09-22T09:00:48.902499Z"}}}